Regional Weather Roundup
Issued by NWS Newport/Morehead, NC

Current Version | Previous Version | Graphics & Text | Print | Product List | Glossary On
Versions: 1 2 3 4 5 6 7 8 9 10 11 12 13 14 15 16 17 18 19 20 21 22 23 24 25 26 27 28 29 30 31 32 33 34 35 36 37 38 39 40 41 42 43 44 45 46 47 48 49 50
000 ASUS42 KMHX 300822 RWRMHX WEATHER ROUNDUP FOR EASTERN NORTH CAROLINA NATIONAL WEATHER SERVICE NEWPORT/MOREHEAD CITY NC 300 AM EST FRI JAN 30 2015 NOTE: "FAIR" INDICATES FEW OR NO CLOUDS BELOW 12,000 FEET WITH NO SIGNIFICANT WEATHER AND/OR OBSTRUCTIONS TO VISIBILITY NCZ015>017-031-032-045>047-102-103-300900- NORTH COAST CITY SKY/WX TMP DP RH WIND PRES REMARKS EDENTON CLOUDY 46 38 74 SW8 29.97F ELIZABETH CITY CLOUDY 44 35 70 SW10 29.97F KITTY HAWK CLOUDY 47 38 69 SW7 29.97F MANTEO CLOUDY 46 37 71 SW9 29.99F $$ NCZ045>047-081-094-103-104-300900- CENTRAL COAST CITY SKY/WX TMP DP RH WIND PRES REMARKS FRISCO CLOUDY 50 44 80 W9 30.01F SWANQUARTER NOT AVBL $$ NCZ095-097-098-100-101-300900- SOUTHERN COAST CITY SKY/WX TMP DP RH WIND PRES REMARKS BEAUFORT CLOUDY 51 46 83 SW12 30.02F CEDAR ISLAND NOT AVBL JACKSONVILLE CLOUDY 49 42 77 SW7 30.01F PINEY ISLAND N/A N/A N/A N/A MISG 30.00F WILMINGTON CLOUDY 49 45 86 SW6 30.02F $$ NCZ011>013-027>030-043-044-078>080-089-090>093-098-300900- COASTAL PLAIN CITY SKY/WX TMP DP RH WIND PRES REMARKS AHOSKIE N/A 39 32 74 SW5 29.96F CLINTON PTCLDY 44 40 85 S3 29.99F ELIZABETHTOWN MOCLDY 49 41 75 SW8 29.99F GOLDSBORO MOCLDY 45 44 98 SW6 29.96F GREENVILLE CLOUDY 46 37 71 SW10 29.98F HAVELOCK CLOUDY 51 42 71 SW10 30.02F KENANSVILLE PTCLDY 43 38 85 CALM 29.99F KINSTON PTCLDY 46 39 78 S10 29.98F NEW BERN CLOUDY 51 40 65 SW10 30.01F RICHLANDS CLOUDY 48 39 71 SW8 30.00F ROCKY MOUNT PTCLDY 39 32 76 S6 29.97F WASHINGTON MOCLDY 44 36 74 S3 29.98F WHITEVILLE CLOUDY 47 42 84 SW5 30.01F $$ AMZ130-135-150-152-154-156-158-170-250-252-270-ANZ085-086-088-633-658-670-300900- MARINE OBSERVATIONS STATION/POSITION TIME TEMP WIND PRES WAVE SWELL AIR SEA DIR/SP/G HT/PER HT/PER (UTC) (F) (DEG/KT/KT) (MB) (FT/S) (FT/S) CHESAPEAKE LIGHT 0800 43 220/ 18/ 19 1014.2 64 E VA BEACH 0800 49 49 230/ 17/ 21 1014.4 4/ 5 2/11 DUCK 0800 45 44 220/ 11/ 13 1014.0 2 E DUCK 0800 42 N/A 2/11 2/11 10 NE DUCK 0800 44 N/A 2/12 2/12 OREGON INLET 0800 45 43 220/ 10/ 13 1015.5 13E OREGON INLT 0800 43 N/A 2/11 2/11 HATTERAS CG 0800 50 44 230/ 9/ 12 1016.4 DIAMOND BUOY 0800 60 70 260/ 27/ 35 1015.5 7/ 6 2/12 17 S OCRACOKE NOT AVBL CAPE LOOKOUT 0800 54 240/ 12/ 17 1016.3 BEAUFORT LAB 0800 52 46 250/ 6/ 11 1015.4 27 SE WRIGHTSVLE NOT AVBL 5 SE WRIGHTSVLE 0800 53 52 230/ 14/ 16 1016.3 225 S CAPE HAT 0652 63 72 240/ 16/ 21 1021.4 4/10 3/10 41 SE CHARLESTON 0800 63 68 240/ 21/ 27 1018.2 5/ 6 2/11 $$

USA.gov is the U.S. government's official web portal to all federal, state and local government web resources and services.